QPF
0.02 0.04 0.06 0.08 0.09 0.09 0.07 0.04 0.02 0.01 0.01 0.01 0.01 0.00 0.00 0.00 0.00 0.00 0.00 0.00 0.00 0.00 0.00 0.00 0.00 0.00 0.00 0.00 0.00 0.00 0.00 0.00 0.00 0.00 0.00 0.00 0.00 0.00 0.01 0.01 0.00 0.01 0.01 0.01
0.05 0.04 0.05 0.06 0.08 0.08 0.06 0.03 0.01 0.01 0.01 0.00 0.00 0.00 0.00 0.00 0.00 0.00 0.00 0.00 0.00 0.00 0.00 0.00 0.00 0.00 0.00 0.00 0.00 0.00 0.00 0.00 0.00 0.00 0.00 0.00 0.00 0.00 0.01 0.01 0.01 0.01 0.02 0.01
0.06 0.04 0.05 0.05 0.06 0.05 0.04 0.02 0.01 0.01 0.00 0.00 0.00 0.00 0.00 0.00 0.00 0.00 0.00 0.00 0.00 0.00 0.00 0.00 0.00 0.00 0.00 0.00 0.00 0.00 0.00 0.00 0.00 0.00 0.00 0.00 0.00 0.00 0.00 0.01 0.01 0.01 0.01 0.01
0.11 0.07 0.05 0.05 0.04 0.04 0.03 0.01 0.00 0.00 0.00 0.00 0.00 0.00 0.00 0.00 0.00 0.00 0.00 0.00 0.00 0.00 0.00 0.00 0.00 0.00 0.00 0.00 0.00 0.00 0.00 0.00 0.00 0.00 0.00 0.00 0.00 0.00 0.00 0.00 0.00 0.00 0.00 0.00
0.10 0.06 0.04 0.04 0.03 0.02 0.01 0.00 0.00 0.00 0.00 0.00 0.00 0.00 0.00 0.00 0.00 0.00 0.00 0.00 0.00 0.00 0.00 0.00 0.00 0.00 0.00 0.00 0.00 0.00 0.00 0.00 0.00 0.00 0.00 0.00 0.00 0.00 0.00 0.00 0.00 0.00 0.00 0.00
0.07 0.04 0.03 0.02 0.02 0.01 0.00 0.00 0.00 0.00 0.00 0.00 0.00 0.00 0.00 0.00 0.00 0.00 0.00 0.00 0.00 0.00 0.00 0.00 0.00 0.00 0.00 0.00 0.00 0.00 0.00 0.00 0.00 0.00 0.00 0.00 0.00 0.00 0.00 0.00 0.00 0.00 0.00 0.00
0.05 0.02 0.01 0.01 0.01 0.00 0.00 0.00 0.00 0.00 0.00 0.00 0.00 0.00 0.00 0.00 0.00 0.00 0.00 0.00 0.00 0.00 0.00 0.00 0.00 0.00 0.00 0.00 0.00 0.00 0.00 0.00 0.00 0.00 0.00 0.00 0.00 0.00 0.00 0.00 0.00 0.00 0.00 0.00
0.04 0.02 0.00 0.00 0.00 0.00 0.00 0.00 0.00 0.00 0.00 0.00 0.00 0.00 0.00 0.00 0.00 0.00 0.00 0.00 0.00 0.00 0.00 0.00 0.00 0.00 0.00 0.00 0.00 0.00 0.00 0.00 0.00 0.00 0.00 0.00 0.00 0.00 0.00 0.00 0.00 0.00 0.00 0.00
0.02 0.01 0.00 0.00 0.00 0.00 0.00 0.00 0.00 0.00 0.00 0.00 0.00 0.00 0.00 0.00 0.00 0.00 0.00 0.00 0.00 0.00 0.00 0.00 0.00 0.00 0.00 0.00 0.00 0.00 0.00 0.00 0.00 0.00 0.00 0.00 0.00 0.00 0.00 0.00 0.00 0.00 0.00 0.00
0.02 0.01 0.00 0.00 0.00 0.00 0.00 0.00 0.00 0.00 0.00 0.00 0.00 0.00 0.00 0.00 0.00 0.00 0.00 0.00 0.00 0.00 0.00 0.00 0.00 0.00 0.00 0.00 0.00 0.00 0.00 0.00 0.00 0.00 0.00 0.00 0.00 0.00 0.00 0.00 0.00 0.00 0.00 0.00
0.01 0.01 0.00 0.00 0.00 0.00 0.00 0.00 0.00 0.00 0.00 0.00 0.00 0.00 0.00 0.00 0.00 0.00 0.00 0.00 0.00 0.00 0.00 0.00 0.00 0.00 0.00 0.00 0.00 0.00 0.00 0.00 0.00 0.00 0.00 0.00 0.00 0.00 0.00 0.00 0.00 0.00 0.00 0.00
0.00 0.00 0.00 0.00 0.00 0.00 0.00 0.00 0.00 0.00 0.00 0.00 0.00 0.00 0.00 0.00 0.00 0.00 0.00 0.00 0.00 0.00 0.00 0.00 0.00 0.00 0.00 0.00 0.00 0.00 0.00 0.00 0.00 0.00 0.00 0.00 0.00 0.00 0.00 0.00 0.00 0.00 0.00 0.00
0.00 0.00 0.00 0.00 0.00 0.00 0.00 0.00 0.00 0.00 0.00 0.00 0.00 0.00 0.00 0.00 0.00 0.00 0.00 0.00 0.00 0.00 0.00 0.00 0.00 0.00 0.00 0.00 0.00 0.00 0.00 0.00 0.00 0.00 0.00 0.00 0.00 0.00 0.00 0.00 0.00 0.00 0.00 0.00
0.00 0.00 0.00 0.00 0.00 0.00 0.00 0.00 0.00 0.00 0.00 0.00 0.00 0.00 0.00 0.00 0.00 0.00 0.00 0.00 0.00 0.00 0.00 0.00 0.00 0.00 0.00 0.00 0.00 0.00 0.00 0.00 0.00 0.00 0.00 0.00 0.00 0.00 0.00 0.00 0.00 0.00 0.00 0.00
0.00 0.00 0.00 0.00 0.00 0.00 0.00 0.00 0.00 0.00 0.00 0.00 0.00 0.00 0.00 0.00 0.00 0.00 0.00 0.00 0.00 0.00 0.00 0.00 0.00 0.00 0.00 0.00 0.00 0.00 0.00 0.00 0.00 0.00 0.00 0.00 0.00 0.00 0.00 0.00 0.00 0.00 0.00 0.00
0.00 0.00 0.00 0.00 0.00 0.00 0.00 0.00 0.00 0.00 0.00 0.00 0.00 0.00 0.00 0.00 0.00 0.00 0.00 0.00 0.00 0.00 0.00 0.00 0.00 0.00 0.00 0.00 0.00 0.00 0.00 0.00 0.00 0.00 0.00 0.00 0.00 0.00 0.00 0.00 0.00 0.00 0.00 0.00
0.00 0.00 0.00 0.00 0.00 0.00 0.00 0.00 0.00 0.00 0.00 0.00 0.00 0.00 0.00 0.00 0.00 0.00 0.00 0.00 0.00 0.00 0.00 0.00 0.00 0.00 0.00 0.00 0.00 0.00 0.00 0.00 0.00 0.00 0.00 0.00 0.00 0.00 0.00 0.00 0.00 0.00 0.00 0.00
0.00 0.00 0.00 0.00 0.00 0.00 0.00 0.00 0.00 0.00 0.00 0.00 0.00 0.00 0.00 0.00 0.00 0.00 0.00 0.00 0.00 0.00 0.00 0.00 0.00 0.00 0.00 0.00 0.00 0.00 0.00 0.00 0.00 0.00 0.00 0.00 0.00 0.00 0.00 0.00 0.00 0.00 0.00 0.00
0.00 0.00 0.00 0.00 0.00 0.00 0.00 0.00 0.00 0.00 0.00 0.00 0.00 0.00 0.00 0.00 0.00 0.00 0.00 0.00 0.00 0.00 0.00 0.00 0.00 0.00 0.00 0.00 0.00 0.00 0.00 0.00 0.00 0.00 0.00 0.00 0.00 0.00 0.00 0.00 0.00 0.00 0.00 0.00
0.00 0.00 0.00 0.00 0.00 0.00 0.00 0.00 0.00 0.00 0.00 0.00 0.00 0.00 0.00 0.00 0.00 0.00 0.00 0.00 0.00 0.00 0.00 0.00 0.00 0.00 0.00 0.00 0.00 0.00 0.00 0.00 0.00 0.00 0.00 0.00 0.00 0.00 0.00 0.00 0.00 0.00 0.00 0.00
0.00 0.00 0.00 0.00 0.00 0.00 0.00 0.00 0.00 0.00 0.00 0.00 0.00 0.00 0.00 0.00 0.00 0.00 0.00 0.00 0.00 0.00 0.00 0.00 0.00 0.00 0.00 0.00 0.00 0.00 0.00 0.00 0.00 0.00 0.00 0.00 0.00 0.00 0.00 0.00 0.00 0.00 0.00 0.00
0.00 0.00 0.00 0.00 0.00 0.00 0.00 0.00 0.00 0.00 0.00 0.00 0.00 0.00 0.00 0.00 0.00 0.00 0.00 0.00 0.00 0.00 0.00 0.00 0.00 0.00 0.00 0.00 0.00 0.00 0.00 0.00 0.00 0.00 0.00 0.00 0.00 0.00 0.00 0.00 0.00 0.00 0.00 0.00
0.00 0.00 0.00 0.00 0.00 0.00 0.00 0.00 0.00 0.00 0.00 0.00 0.00 0.00 0.00 0.00 0.00 0.00 0.00 0.00 0.00 0.00 0.00 0.00 0.00 0.00 0.00 0.00 0.00 0.00 0.00 0.00 0.00 0.00 0.00 0.00 0.00 0.00 0.00 0.00 0.00 0.00 0.00 0.00
0.00 0.00 0.00 0.00 0.00 0.00 0.00 0.00 0.00 0.00 0.00 0.00 0.00 0.00 0.00 0.00 0.00 0.00 0.00 0.00 0.00 0.00 0.00 0.00 0.00 0.00 0.00 0.00 0.00 0.00 0.00 0.00 0.00 0.00 0.00 0.00 0.00 0.00 0.00 0.00 0.00 0.00 0.00 0.00
0.00 0.00 0.00 0.00 0.00 0.00 0.00 0.00 0.00 0.00 0.00 0.00 0.00 0.00 0.00 0.00 0.00 0.00 0.00 0.00 0.00 0.00 0.00 0.00 0.00 0.00 0.00 0.00 0.00 0.00 0.00 0.00 0.00 0.00 0.00 0.00 0.00 0.00 0.00 0.00 0.00 0.00 0.00 0.00
0.00 0.00 0.00 0.00 0.00 0.00 0.00 0.00 0.00 0.00 0.00 0.00 0.00 0.00 0.00 0.00 0.00 0.00 0.00 0.00 0.00 0.00 0.00 0.00 0.00 0.00 0.00 0.00 0.00 0.00 0.00 0.00 0.00 0.00 0.00 0.00 0.00 0.00 0.00 0.00 0.00 0.00 0.00 0.00
MSLP
1011.11 1012.33 1013.45 1014.41 1015.17 1015.77 1016.20 1016.49 1016.68 1016.77 1016.77 1016.69 1016.53 1016.29 1015.99 1015.68 1015.37 1015.13 1014.96 1014.89 1014.90 1014.99 1015.11 1015.22 1015.31 1015.33 1015.30 1015.22 1015.11 1015.00 1014.92 1014.86 1014.84 1014.82 1014.79 1014.70 1014.53 1014.26 1013.89 1013.43 1012.92 1012.40 1011.92 1011.49
1011.78 1012.77 1013.61 1014.30 1014.86 1015.31 1015.68 1016.01 1016.29 1016.52 1016.67 1016.71 1016.62 1016.40 1016.09 1015.72 1015.35 1015.04 1014.84 1014.77 1014.81 1014.96 1015.14 1015.32 1015.44 1015.49 1015.45 1015.34 1015.20 1015.07 1014.98 1014.94 1014.96 1014.99 1015.01 1014.97 1014.84 1014.59 1014.21 1013.73 1013.20 1012.65 1012.14 1011.70
1012.29 1013.03 1013.62 1014.08 1014.46 1014.81 1015.18 1015.58 1015.99 1016.37 1016.66 1016.81 1016.79 1016.59 1016.24 1015.79 1015.34 1014.96 1014.70 1014.60 1014.66 1014.84 1015.07 1015.30 1015.46 1015.53 1015.49 1015.37 1015.22 1015.08 1014.99 1014.98 1015.03 1015.12 1015.21 1015.23 1015.15 1014.93 1014.57 1014.10 1013.57 1013.02 1012.50 1012.06
1012.60 1013.11 1013.49 1013.77 1014.05 1014.37 1014.79 1015.30 1015.86 1016.41 1016.84 1017.09 1017.11 1016.90 1016.48 1015.93 1015.37 1014.88 1014.54 1014.40 1014.44 1014.63 1014.89 1015.16 1015.36 1015.45 1015.43 1015.32 1015.16 1015.02 1014.94 1014.95 1015.04 1015.18 1015.32 1015.40 1015.38 1015.21 1014.89 1014.46 1013.95 1013.42 1012.92 1012.49
1012.73 1013.05 1013.27 1013.45 1013.69 1014.06 1014.58 1015.24 1015.97 1016.67 1017.23 1017.55 1017.58 1017.32 1016.80 1016.13 1015.43 1014.81 1014.37 1014.15 1014.16 1014.34 1014.63 1014.93 1015.17 1015.29 1015.29 1015.19 1015.04 1014.91 1014.83 1014.85 1014.97 1015.14 1015.32 1015.45 1015.48 1015.36 1015.10 1014.72 1014.26 1013.77 1013.30 1012.89
1012.74 1012.93 1013.05 1013.20 1013.47 1013.92 1014.58 1015.41 1016.30 1017.13 1017.78 1018.14 1018.15 1017.80 1017.17 1016.35 1015.49 1014.74 1014.19 1013.89 1013.85 1014.03 1014.33 1014.67 1014.94 1015.10 1015.12 1015.04 1014.90 1014.76 1014.68 1014.70 1014.81 1014.99 1015.19 1015.35 1015.41 1015.35 1015.14 1014.82 1014.41 1013.97 1013.54 1013.16
1012.73 1012.82 1012.90 1013.07 1013.42 1013.99 1014.79 1015.76 1016.78 1017.71 1018.40 1018.75 1018.70 1018.25 1017.49 1016.53 1015.53 1014.65 1014.00 1013.63 1013.56 1013.72 1014.04 1014.40 1014.71 1014.90 1014.96 1014.89 1014.76 1014.61 1014.52 1014.51 1014.60 1014.76 1014.95 1015.12 1015.20 1015.17 1015.01 1014.74 1014.39 1014.01 1013.63 1013.29
1012.75 1012.80 1012.88 1013.10 1013.54 1014.22 1015.14 1016.21 1017.30 1018.26 1018.95 1019.25 1019.12 1018.57 1017.68 1016.60 1015.50 1014.52 1013.80 1013.39 1013.29 1013.45 1013.79 1014.17 1014.51 1014.73 1014.82 1014.77 1014.63 1014.47 1014.35 1014.31 1014.36 1014.48 1014.64 1014.79 1014.88 1014.87 1014.75 1014.53 1014.24 1013.91 1013.58 1013.28
1012.84 1012.88 1013.00 1013.28 1013.79 1014.55 1015.53 1016.64 1017.73 1018.66 1019.29 1019.51 1019.28 1018.64 1017.67 1016.52 1015.36 1014.34 1013.59 1013.17 1013.07 1013.23 1013.58 1013.98 1014.34 1014.58 1014.68 1014.64 1014.51 1014.34 1014.19 1014.11 1014.12 1014.20 1014.32 1014.45 1014.53 1014.53 1014.44 1014.26 1014.02 1013.74 1013.46 1013.20
1012.96 1013.03 1013.20 1013.54 1014.10 1014.89 1015.86 1016.93 1017.96 1018.80 1019.32 1019.44 1019.13 1018.42 1017.42 1016.25 1015.10 1014.10 1013.38 1012.97 1012.88 1013.06 1013.40 1013.81 1014.17 1014.42 1014.52 1014.49 1014.36 1014.18 1014.02 1013.92 1013.89 1013.93 1014.03 1014.13 1014.20 1014.21 1014.15 1014.01 1013.81 1013.58 1013.34 1013.12
1013.08 1013.21 1013.44 1013.82 1014.39 1015.15 1016.05 1017.01 1017.90 1018.60 1018.99 1019.01 1018.64 1017.91 1016.93 1015.82 1014.74 1013.83 1013.16 1012.80 1012.73 1012.91 1013.24 1013.61 1013.95 1014.19 1014.29 1014.26 1014.14 1013.98 1013.82 1013.72 1013.68 1013.71 1013.79 1013.89 1013.96 1013.98 1013.94 1013.84 1013.68 1013.49 1013.29 1013.10
1013.15 1013.36 1013.65 1014.05 1014.59 1015.27 1016.05 1016.85 1017.57 1018.10 1018.35 1018.28 1017.88 1017.18 1016.27 1015.28 1014.33 1013.53 1012.96 1012.65 1012.60 1012.76 1013.05 1013.37 1013.66 1013.86 1013.95 1013.92 1013.83 1013.69 1013.57 1013.50 1013.48 1013.53 1013.62 1013.72 1013.80 1013.85 1013.83 1013.76 1013.65 1013.49 1013.32 1013.15
1013.16 1013.46 1013.79 1014.19 1014.68 1015.25 1015.87 1016.48 1017.00 1017.35 1017.47 1017.33 1016.92 1016.29 1015.51 1014.68 1013.89 1013.23 1012.77 1012.53 1012.48 1012.60 1012.82 1013.07 1013.28 1013.43 1013.49 1013.48 1013.41 1013.33 1013.26 1013.24 1013.28 1013.36 1013.48 1013.60 1013.71 1013.77 1013.78 1013.75 1013.66 1013.54 1013.40 1013.25
1013.13 1013.50 1013.87 1014.26 1014.67 1015.11 1015.54 1015.95 1016.26 1016.45 1016.45 1016.26 1015.88 1015.34 1014.71 1014.06 1013.45 1012.95 1012.60 1012.41 1012.36 1012.42 1012.56 1012.71 1012.83 1012.92 1012.95 1012.94 1012.92 1012.90 1012.91 1012.96 1013.06 1013.19 1013.34 1013.49 1013.61 1013.69 1013.72 1013.71 1013.65 1013.56 1013.44 1013.31
1013.12 1013.55 1013.93 1014.27 1014.59 1014.88 1015.13 1015.33 1015.45 1015.47 1015.37 1015.14 1014.80 1014.38 1013.91 1013.45 1013.02 1012.67 1012.43 1012.28 1012.22 1012.22 1012.27 1012.32 1012.36 1012.38 1012.38 1012.39 1012.40 1012.45 1012.53 1012.66 1012.82 1013.00 1013.17 1013.33 1013.46 1013.54 1013.57 1013.57 1013.52 1013.45 1013.36 1013.24
1013.20 1013.64 1014.00 1014.28 1014.48 1014.61 1014.68 1014.68 1014.61 1014.48 1014.29 1014.04 1013.75 1013.43 1013.12 1012.83 1012.57 1012.37 1012.22 1012.12 1012.05 1012.01 1011.97 1011.94 1011.90 1011.87 1011.86 1011.88 1011.94 1012.04 1012.19 1012.38 1012.58 1012.78 1012.96 1013.11 1013.21 1013.27 1013.28 1013.27 1013.22 1013.16 1013.08 1012.98
1013.41 1013.81 1014.10 1014.28 1014.35 1014.32 1014.20 1014.01 1013.77 1013.50 1013.22 1012.95 1012.70 1012.48 1012.31 1012.18 1012.08 1012.01 1011.96 1011.91 1011.85 1011.78 1011.70 1011.61 1011.53 1011.47 1011.46 1011.50 1011.59 1011.74 1011.94 1012.15 1012.36 1012.56 1012.71 1012.81 1012.86 1012.87 1012.84 1012.80 1012.73 1012.66 1012.59 1012.50
1013.72 1014.03 1014.22 1014.27 1014.19 1013.98 1013.68 1013.32 1012.92 1012.53 1012.17 1011.87 1011.65 1011.51 1011.45 1011.46 1011.50 1011.56 1011.61 1011.63 1011.61 1011.55 1011.46 1011.36 1011.28 1011.22 1011.22 1011.29 1011.41 1011.59 1011.80 1012.01 1012.20 1012.35 1012.45 1012.48 1012.45 1012.39 1012.30 1012.20 1012.10 1012.01 1011.93 1011.85
1014.06 1014.24 1014.29 1014.18 1013.94 1013.56 1013.09 1012.56 1012.03 1011.53 1011.10 1010.78 1010.58 1010.51 1010.54 1010.66 1010.83 1011.01 1011.16 1011.28 1011.33 1011.32 1011.28 1011.21 1011.16 1011.13 1011.17 1011.26 1011.41 1011.59 1011.80 1011.98 1012.12 1012.21 1012.22 1012.16 1012.05 1011.90 1011.73 1011.57 1011.43 1011.31 1011.21 1011.13
1014.30 1014.32 1014.21 1013.94 1013.53 1013.00 1012.38 1011.72 1011.07 1010.49 1010.01 1009.68 1009.50 1009.48 1009.60 1009.82 1010.09 1010.39 1010.66 1010.87 1011.02 1011.11 1011.14 1011.14 1011.15 1011.19 1011.26 1011.39 1011.55 1011.74 1011.91 1012.05 1012.14 1012.14 1012.07 1011.92 1011.72 1011.49 1011.26 1011.04 1010.84 1010.69 1010.56 1010.45
1014.30 1014.16 1013.87 1013.45 1012.90 1012.24 1011.51 1010.76 1010.04 1009.41 1008.92 1008.59 1008.44 1008.47 1008.66 1008.97 1009.35 1009.75 1010.13 1010.45 1010.71 1010.90 1011.04 1011.14 1011.23 1011.33 1011.46 1011.62 1011.80 1011.97 1012.12 1012.21 1012.23 1012.17 1012.02 1011.81 1011.54 1011.25 1010.96 1010.69 1010.45 1010.25 1010.08 1009.92
1013.96 1013.66 1013.23 1012.68 1012.01 1011.27 1010.48 1009.68 1008.95 1008.33 1007.85 1007.56 1007.46 1007.55 1007.81 1008.19 1008.66 1009.15 1009.63 1010.06 1010.43 1010.73 1010.97 1011.17 1011.35 1011.52 1011.70 1011.89 1012.08 1012.24 1012.36 1012.42 1012.39 1012.28 1012.09 1011.83 1011.53 1011.21 1010.88 1010.58 1010.31 1010.06 1009.84 1009.62
1013.23 1012.80 1012.25 1011.61 1010.88 1010.10 1009.30 1008.53 1007.84 1007.26 1006.85 1006.63 1006.60 1006.77 1007.09 1007.55 1008.08 1008.65 1009.21 1009.73 1010.19 1010.59 1010.92 1011.21 1011.47 1011.71 1011.94 1012.15 1012.35 1012.50 1012.60 1012.63 1012.58 1012.45 1012.24 1011.98 1011.68 1011.35 1011.03 1010.72 1010.43 1010.14 1009.87 1009.58
1012.16 1011.62 1011.00 1010.31 1009.56 1008.79 1008.03 1007.33 1006.73 1006.26 1005.96 1005.84 1005.90 1006.15 1006.54 1007.06 1007.65 1008.27 1008.89 1009.47 1010.00 1010.47 1010.88 1011.24 1011.56 1011.86 1012.12 1012.36 1012.56 1012.72 1012.81 1012.83 1012.78 1012.65 1012.46 1012.22 1011.94 1011.65 1011.35 1011.05 1010.75 1010.44 1010.12 1009.77
1010.86 1010.26 1009.58 1008.86 1008.13 1007.41 1006.74 1006.14 1005.67 1005.34 1005.17 1005.17 1005.34 1005.68 1006.14 1006.71 1007.34 1008.00 1008.65 1009.27 1009.85 1010.37 1010.84 1011.25 1011.62 1011.96 1012.25 1012.51 1012.72 1012.87 1012.97 1012.99 1012.95 1012.84 1012.68 1012.48 1012.25 1012.00 1011.74 1011.47 1011.18 1010.86 1010.51 1010.11
1009.51 1008.84 1008.14 1007.41 1006.71 1006.05 1005.48 1005.01 1004.68 1004.49 1004.46 1004.60 1004.88 1005.30 1005.83 1006.45 1007.11 1007.79 1008.46 1009.11 1009.71 1010.27 1010.77 1011.23 1011.64 1012.01 1012.33 1012.60 1012.82 1012.98 1013.08 1013.11 1013.08 1013.00 1012.88 1012.72 1012.54 1012.35 1012.13 1011.90 1011.63 1011.32 1010.96 1010.53
Thickness
5760 5743 5733 5739 5745 5745 5740 5732 5728 5738 5752 5742 5734 5734 5738 5742 5740 5735 5732 5731 5730 5729 5729 5727 5723 5719 5714 5710 5706 5701 5696 5691 5687 5682 5678 5674 5672 5671 5671 5671 5671 5671 5672 5674
5739 5735 5748 5753 5752 5747 5739 5730 5729 5741 5752 5742 5733 5734 5740 5742 5740 5737 5734 5731 5731 5728 5725 5723 5720 5717 5713 5708 5704 5700 5695 5690 5686 5682 5678 5674 5671 5669 5669 5668 5669 5669 5669 5671
5731 5742 5755 5750 5743 5736 5734 5731 5731 5733 5741 5741 5733 5722 5731 5739 5741 5739 5738 5736 5733 5730 5724 5721 5718 5715 5711 5708 5704 5701 5695 5691 5687 5683 5678 5674 5670 5668 5666 5665 5665 5667 5667 5668
5730 5745 5750 5744 5739 5736 5728 5743 5742 5736 5722 5711 5723 5699 5719 5729 5731 5734 5734 5733 5731 5731 5727 5722 5719 5715 5712 5709 5706 5702 5697 5692 5688 5684 5678 5672 5667 5663 5663 5662 5663 5665 5666 5666
5728 5741 5742 5737 5742 5743 5737 5749 5744 5736 5723 5711 5713 5700 5706 5724 5722 5727 5731 5733 5732 5731 5728 5724 5721 5718 5715 5712 5708 5703 5698 5693 5689 5685 5679 5674 5669 5665 5664 5663 5663 5663 5664 5664
5734 5747 5748 5745 5752 5752 5748 5738 5727 5712 5703 5693 5709 5699 5704 5713 5724 5729 5733 5733 5732 5731 5729 5726 5724 5720 5716 5713 5709 5704 5699 5694 5690 5686 5681 5676 5671 5667 5665 5663 5662 5661 5662 5663
5721 5735 5748 5752 5741 5743 5733 5709 5688 5687 5676 5685 5710 5705 5707 5729 5737 5736 5734 5733 5733 5732 5729 5726 5722 5719 5716 5713 5709 5705 5700 5695 5691 5687 5683 5678 5674 5670 5667 5664 5662 5661 5660 5660
5703 5709 5737 5747 5739 5729 5726 5710 5685 5677 5676 5687 5709 5702 5715 5737 5741 5741 5739 5736 5735 5732 5730 5728 5725 5721 5717 5714 5710 5705 5701 5696 5693 5688 5684 5681 5677 5673 5669 5667 5664 5662 5660 5660
5703 5709 5740 5748 5750 5740 5722 5710 5709 5691 5690 5685 5692 5706 5722 5734 5735 5735 5735 5734 5733 5733 5731 5729 5726 5723 5719 5715 5712 5708 5703 5698 5694 5691 5687 5682 5679 5675 5671 5669 5666 5664 5662 5661
5720 5712 5730 5742 5744 5740 5732 5718 5697 5689 5679 5674 5690 5696 5699 5718 5725 5732 5732 5733 5734 5734 5732 5730 5727 5724 5721 5718 5714 5710 5705 5701 5697 5693 5688 5685 5681 5677 5673 5670 5667 5664 5663 5661
5727 5711 5715 5726 5723 5719 5724 5719 5700 5684 5681 5672 5676 5692 5725 5727 5731 5733 5735 5737 5736 5735 5733 5730 5728 5725 5723 5719 5715 5710 5706 5702 5698 5694 5690 5686 5682 5678 5675 5671 5668 5665 5663 5661
5728 5707 5698 5711 5727 5733 5727 5719 5702 5687 5687 5682 5676 5695 5739 5738 5739 5739 5739 5740 5739 5737 5735 5732 5729 5725 5722 5718 5715 5711 5707 5703 5699 5696 5691 5687 5683 5679 5675 5672 5669 5666 5663 5661
5727 5704 5686 5690 5705 5723 5724 5722 5711 5697 5687 5679 5677 5702 5737 5738 5739 5741 5740 5740 5738 5737 5734 5731 5727 5724 5721 5719 5715 5712 5708 5704 5701 5697 5692 5687 5683 5679 5676 5673 5670 5667 5663 5661
5730 5706 5694 5690 5698 5710 5715 5721 5719 5702 5687 5688 5695 5708 5730 5733 5735 5738 5739 5739 5737 5736 5733 5729 5725 5723 5721 5719 5716 5713 5709 5706 5702 5697 5692 5688 5684 5681 5677 5674 5670 5667 5664 5660
5726 5708 5710 5712 5720 5719 5719 5720 5719 5711 5703 5698 5710 5717 5728 5733 5736 5739 5739 5738 5737 5735 5732 5730 5726 5723 5721 5719 5716 5713 5710 5707 5703 5697 5692 5689 5686 5682 5678 5674 5671 5667 5664 5661
5721 5712 5713 5713 5723 5722 5720 5722 5721 5719 5717 5714 5718 5723 5739 5741 5739 5738 5738 5737 5735 5734 5733 5731 5729 5725 5722 5719 5716 5714 5710 5707 5703 5698 5693 5690 5686 5682 5678 5675 5671 5667 5664 5661
5712 5708 5700 5694 5709 5715 5706 5722 5723 5723 5728 5724 5718 5728 5738 5735 5736 5737 5738 5738 5736 5735 5734 5732 5728 5725 5723 5720 5717 5713 5710 5707 5701 5696 5692 5689 5685 5681 5678 5675 5671 5667 5664 5661
5710 5701 5689 5689 5699 5688 5716 5742 5741 5735 5737 5739 5740 5740 5740 5741 5742 5743 5742 5739 5736 5735 5733 5731 5728 5725 5723 5720 5717 5713 5709 5703 5698 5694 5691 5687 5684 5680 5677 5674 5670 5667 5664 5661
5719 5704 5688 5681 5683 5694 5722 5744 5743 5734 5734 5746 5744 5743 5743 5742 5738 5736 5743 5742 5738 5736 5733 5730 5728 5725 5721 5718 5714 5709 5704 5699 5695 5691 5688 5686 5682 5679 5676 5673 5670 5668 5664 5661
5712 5706 5690 5680 5684 5686 5719 5749 5757 5746 5732 5751 5749 5745 5740 5735 5720 5724 5740 5740 5738 5735 5732 5729 5725 5722 5717 5714 5710 5705 5699 5695 5691 5689 5686 5684 5681 5678 5675 5672 5670 5668 5665 5662
5701 5695 5686 5680 5681 5696 5732 5750 5751 5721 5728 5755 5753 5750 5743 5737 5737 5738 5739 5736 5734 5731 5729 5725 5720 5715 5711 5708 5705 5698 5693 5689 5688 5686 5684 5681 5678 5676 5674 5671 5669 5667 5665 5662
5694 5686 5682 5676 5677 5695 5743 5745 5737 5739 5754 5756 5753 5751 5747 5743 5740 5737 5734 5730 5728 5725 5722 5718 5713 5708 5705 5702 5699 5693 5688 5686 5684 5682 5679 5676 5674 5673 5672 5668 5666 5664 5662 5659
5699 5706 5701 5701 5710 5735 5745 5749 5755 5755 5753 5754 5751 5750 5747 5739 5735 5732 5728 5725 5722 5719 5715 5711 5706 5701 5697 5694 5692 5686 5683 5682 5679 5675 5672 5670 5669 5667 5666 5664 5662 5660 5658 5655
5706 5715 5707 5707 5721 5735 5744 5750 5755 5755 5754 5754 5752 5749 5745 5738 5732 5727 5723 5719 5715 5712 5708 5704 5699 5694 5689 5686 5684 5680 5678 5676 5673 5668 5665 5663 5662 5660 5660 5658 5657 5655 5653 5651
5706 5711 5705 5707 5721 5731 5739 5744 5749 5751 5752 5750 5747 5745 5742 5736 5729 5723 5718 5713 5709 5705 5701 5697 5692 5686 5681 5679 5676 5674 5671 5668 5664 5660 5658 5656 5655 5653 5652 5651 5650 5648 5647 5646
5706 5705 5700 5704 5721 5720 5730 5743 5744 5742 5743 5743 5740 5736 5735 5733 5726 5719 5713 5708 5703 5698 5693 5688 5683 5678 5674 5671 5668 5665 5663 5660 5656 5652 5650 5647 5646 5645 5643 5642 5641 5642 5641 5640